Wind_Speed
20 20 19 18 19 17 17 17 16 15 14 13 11 10 9 7 5 3 1 1 2 3 2 2 7 7 7 4 2 0 1 1 3 3 3 1 5 9 12 18 21 23 27 27 26
20 19 18 18 18 17 17 18 17 17 15 13 12 12 10 9 7 6 4 2 2 3 2 1 5 5 6 4 4 5 1 2 2 10 9 8 11 10 12 18 22 24 29 32 32
22 20 19 18 18 18 18 18 18 17 17 17 15 14 14 12 11 9 7 5 4 4 4 1 3 5 5 4 2 3 3 3 11 17 16 11 9 13 13 12 16 21 25 29 31
25 23 21 20 19 18 17 17 17 17 17 17 17 16 15 14 13 12 10 8 6 6 6 3 2 4 2 3 2 2 5 6 13 12 13 11 8 11 12 13 13 21 24 25 34
27 26 24 23 21 20 19 18 18 18 17 17 17 16 15 14 13 13 12 11 9 9 8 5 4 3 2 1 1 5 3 4 7 12 12 13 8 10 13 14 20 22 22 25 32
31 29 27 25 24 23 22 21 21 20 19 18 17 17 16 15 14 13 12 12 12 12 10 7 5 3 3 2 3 3 3 2 4 10 14 16 11 6 10 14 18 20 23 25 33
33 33 31 29 28 26 24 24 22 21 20 18 18 18 17 16 16 15 13 12 12 13 12 9 6 4 4 4 4 4 5 6 6 9 14 18 5 6 8 11 15 17 19 24 30
34 33 32 31 29 28 26 25 24 23 21 20 19 19 18 18 17 16 14 13 13 14 14 11 9 7 6 6 6 5 6 8 8 10 15 19 8 6 8 11 12 14 17 19 25
37 34 33 31 29 29 27 27 25 24 23 21 20 19 18 21 19 16 15 14 14 14 14 13 12 10 10 9 8 7 7 9 9 10 16 21 17 8 6 10 11 15 17 20 19
35 37 34 31 29 29 27 27 25 24 23 22 20 20 18 19 19 19 16 16 15 14 13 13 12 12 13 13 10 8 8 7 11 9 15 19 20 15 8 9 13 16 19 21 21
34 34 36 32 30 29 26 27 24 22 21 22 21 20 19 18 21 21 18 16 14 15 15 13 11 16 14 13 12 11 11 9 10 10 15 19 21 17 11 10 13 16 19 20 21
33 33 35 34 31 29 25 26 23 22 22 21 20 19 18 18 21 18 17 18 17 17 17 13 15 17 12 12 12 12 11 12 14 14 16 18 19 20 17 16 15 16 20 21 19
30 32 33 34 32 29 25 24 23 25 22 22 20 20 20 17 18 20 20 19 19 19 17 16 18 19 15 13 13 14 13 15 15 18 16 17 16 17 18 18 20 20 20 19 17
27 28 31 32 32 30 30 26 25 26 24 23 23 21 21 21 21 22 21 22 19 19 20 16 19 19 17 15 15 14 18 16 17 19 19 16 15 16 17 18 17 16 13 13 15
29 27 28 29 29 30 28 27 26 26 25 24 24 22 22 20 20 24 24 22 22 24 21 21 22 21 16 17 14 17 17 18 20 23 21 13 18 18 18 16 14 9 7 14 18
31 32 31 30 31 27 25 29 29 28 27 25 25 23 22 22 23 22 21 24 25 24 23 23 22 21 20 21 19 18 18 21 24 24 20 15 20 19 15 14 12 13 17 18 22
35 35 38 37 33 30 30 32 31 31 26 28 24 22 24 24 26 27 26 25 25 26 27 28 25 25 25 24 23 21 20 24 25 24 19 18 21 23 18 17 18 23 22 20 22
37 35 40 41 36 33 36 35 34 30 29 28 26 25 28 28 28 30 30 28 27 26 26 27 27 28 28 26 24 25 28 29 26 23 23 20 22 25 20 19 18 23 22 20 24
35 36 37 38 37 37 38 36 32 31 31 31 31 30 31 31 31 32 32 30 29 30 29 28 29 29 29 28 23 26 29 25 25 26 23 18 22 24 22 22 19 16 15 18 20
33 36 38 39 41 41 40 37 35 34 34 33 34 33 33 34 33 33 31 29 30 31 30 30 29 27 28 28 27 29 29 24 24 22 18 17 19 18 20 21 18 16 15 17 21
34 34 36 39 40 43 40 37 38 37 36 34 35 35 34 34 34 32 31 30 29 28 29 30 30 27 27 28 25 28 30 29 27 23 19 21 18 14 15 17 17 16 14 19 23
35 35 35 37 40 40 37 37 37 37 35 34 34 32 32 34 35 34 32 30 28 27 28 28 28 25 26 29 26 30 30 26 22 23 24 20 16 14 15 14 14 13 14 19 25
35 36 38 39 39 37 38 38 37 37 37 35 33 33 34 34 34 34 32 31 28 25 29 29 28 23 27 30 28 31 31 28 22 22 21 22 18 15 15 16 14 13 15 17 24
36 36 38 40 40 40 39 39 38 38 38 36 34 36 35 34 33 35 34 33 30 25 24 27 27 23 21 26 29 31 30 27 25 24 25 24 20 16 15 12 9 12 13 16 22
38 37 37 39 40 40 40 42 40 40 41 40 39 39 37 34 35 36 37 36 32 28 25 25 24 24 23 24 32 35 34 31 27 24 22 23 24 19 17 16 14 12 12 15 21
42 39 39 39 39 40 41 41 39 39 39 40 41 40 40 39 39 36 39 39 36 35 31 31 33 31 28 23 24 28 35 33 30 28 28 26 27 21 17 17 12 12 12 15 21
41 42 42 40 41 40 41 41 40 40 40 39 39 39 42 43 41 39 36 39 44 40 39 40 40 40 34 28 22 23 24 32 37 34 31 34 35 33 18 16 17 16 14 18 22
Wind_Direction
204 202 202 204 207 200 196 195 193 192 192 189 189 201 203 203 208 220 182 356 359 349 353 71 108 129 132 153 92 152 163 135 216 252 265 189 59 43 42 48 30 23 22 16 6
212 208 206 204 204 204 204 202 202 201 207 210 204 214 223 224 228 234 237 268 311 310 319 95 119 145 136 153 142 176 124 78 333 331 316 340 18 10 35 43 26 21 16 14 13
220 216 213 212 211 205 205 210 210 209 211 216 220 223 230 233 236 236 239 253 268 278 282 217 146 182 150 154 142 150 142 345 351 344 338 354 6 2 7 15 19 14 10 5 3
220 220 219 217 217 216 214 210 213 216 215 217 222 228 232 235 241 239 237 239 241 255 258 252 182 223 194 125 147 118 65 2 351 345 346 355 354 359 359 12 15 20 7 7 5
223 223 222 222 219 221 222 220 219 218 218 219 222 227 234 237 242 244 241 237 230 233 244 253 237 226 275 123 304 69 84 40 342 332 334 330 354 353 359 16 26 21 1 0 358
226 227 228 228 227 225 226 224 226 224 222 221 224 227 233 237 237 241 244 240 234 229 227 238 240 220 193 232 300 330 326 10 314 324 319 320 336 356 3 5 24 15 8 5 2
227 228 230 231 230 229 228 229 227 228 229 226 227 229 232 237 236 237 239 240 237 234 226 228 237 230 214 226 264 305 308 309 322 307 305 334 30 352 355 345 10 5 1 4 13
229 229 230 231 231 231 231 232 231 230 232 232 231 232 232 237 237 240 240 240 239 235 224 223 230 230 237 248 246 261 271 272 281 300 321 321 335 335 348 2 7 353 350 5 2
230 230 230 232 230 231 229 231 231 231 230 232 231 234 232 239 241 240 242 241 241 238 230 226 234 240 244 252 253 255 262 274 281 303 307 311 306 317 351 348 344 338 349 3 0
229 229 230 232 231 231 228 229 229 228 227 228 232 235 235 237 239 238 236 237 237 235 233 232 236 242 245 249 251 261 270 280 273 292 300 299 305 310 326 323 315 338 343 352 350
228 229 228 230 230 229 227 228 227 226 227 227 226 231 231 228 234 237 231 233 235 235 234 233 230 233 235 247 259 263 257 254 254 273 286 294 302 308 303 317 323 328 333 342 340
222 225 225 226 228 228 226 230 228 226 225 224 223 228 227 226 233 235 232 227 226 230 232 226 232 242 242 250 259 259 256 246 253 269 282 291 299 304 311 314 319 314 320 333 332
220 222 222 222 226 225 224 231 229 228 224 224 219 222 220 222 229 233 234 230 230 232 239 240 240 245 241 238 241 252 259 254 255 273 280 290 293 299 305 313 312 316 321 320 323
218 217 218 218 224 228 226 234 234 233 227 226 221 223 229 221 223 229 235 234 233 233 234 236 244 245 240 242 247 254 256 265 267 272 274 287 287 292 297 303 307 319 345 322 328
222 220 217 213 218 226 229 230 236 230 226 220 228 224 229 229 228 234 232 233 232 233 236 236 241 239 240 244 244 252 264 270 277 283 289 290 286 290 299 314 336 340 337 302 308
228 225 224 228 227 227 230 232 232 230 228 224 222 229 230 232 229 235 237 237 238 238 237 241 245 249 251 252 251 250 260 267 273 276 282 279 281 292 298 308 295 302 308 316 343
233 231 233 230 229 231 232 233 228 222 221 229 232 234 243 240 242 238 237 238 240 243 241 239 240 241 246 249 254 257 253 259 263 269 275 268 275 285 303 300 291 297 303 315 326
232 233 233 228 227 231 231 228 224 221 227 235 240 239 245 243 240 243 243 241 243 245 246 248 242 244 246 250 249 249 251 254 259 261 265 272 278 284 295 296 292 291 297 311 334
232 229 231 225 230 231 231 229 228 230 231 236 238 239 242 245 245 249 249 248 244 247 247 250 246 244 245 242 243 247 250 252 255 259 264 270 275 282 289 299 310 298 302 312 341
231 228 228 229 232 232 232 231 231 232 234 238 242 241 238 240 244 246 247 249 249 247 247 251 252 250 244 241 238 237 243 244 250 258 261 264 271 279 286 294 310 320 318 318 339
237 232 227 228 228 230 234 234 236 237 238 238 241 240 238 235 236 237 241 247 252 254 257 255 254 251 239 231 232 234 244 245 249 253 266 274 276 298 296 292 300 311 316 323 329
235 236 234 231 232 232 233 235 235 234 232 230 233 236 238 237 234 237 239 241 248 252 252 247 247 246 242 230 225 229 237 246 250 258 260 273 289 309 296 295 295 309 318 327 331
235 234 233 234 233 232 230 230 229 229 229 228 231 235 239 240 234 234 235 241 244 246 238 239 245 242 248 241 230 224 235 245 255 256 261 274 293 304 295 292 301 311 312 332 336
235 234 233 233 233 233 233 233 232 232 233 231 232 235 239 242 243 236 236 238 243 248 241 239 244 243 237 234 230 230 240 253 258 259 262 273 278 299 303 299 291 299 316 331 331
235 234 233 232 231 231 231 233 234 237 236 237 235 237 239 240 242 241 236 235 241 249 253 257 255 252 240 237 231 233 233 242 251 261 266 270 278 286 294 287 298 292 318 325 325
233 234 233 233 232 229 228 230 229 232 236 235 236 234 235 236 240 240 239 241 236 243 250 258 264 264 259 242 237 237 242 241 243 257 262 265 272 293 292 283 277 293 311 313 323
233 231 232 231 233 232 230 229 227 228 231 232 234 235 234 236 236 239 239 238 238 239 245 252 260 263 261 263 256 249 245 249 245 249 259 266 276 284 294 281 265 287 299 308 316
Height
5868 5870 5873 5875 5878 5879 5881 5884 5885 5888 5890 5892 5893 5896 5897 5899 5901 5903 5904 5905 5905 5906 5906 5908 5909 5908 5908 5910 5909 5909 5909 5911 5911 5912 5911 5910 5910 5908 5907 5907 5906 5905 5902 5899 5899
5865 5868 5871 5873 5876 5878 5880 5882 5884 5886 5889 5891 5893 5895 5897 5898 5900 5902 5903 5904 5905 5905 5906 5908 5910 5909 5910 5911 5910 5910 5910 5913 5913 5913 5913 5914 5912 5909 5909 5906 5904 5903 5902 5901 5899
5863 5866 5869 5871 5874 5876 5878 5880 5883 5885 5887 5890 5892 5894 5896 5897 5899 5901 5902 5903 5904 5905 5906 5907 5909 5910 5911 5911 5912 5912 5911 5914 5917 5916 5915 5915 5913 5911 5909 5908 5906 5903 5902 5901 5897
5860 5863 5866 5869 5871 5874 5876 5878 5881 5884 5886 5888 5890 5892 5894 5896 5899 5899 5901 5902 5904 5904 5906 5906 5908 5909 5910 5911 5912 5914 5915 5916 5915 5915 5914 5914 5914 5912 5910 5907 5905 5903 5902 5900 5896
5857 5860 5863 5865 5868 5871 5874 5876 5879 5882 5884 5886 5888 5890 5892 5894 5896 5897 5898 5900 5902 5904 5904 5906 5908 5909 5910 5911 5911 5913 5914 5916 5915 5913 5913 5911 5914 5911 5910 5907 5903 5902 5902 5900 5896
5853 5856 5859 5862 5865 5868 5871 5874 5877 5879 5882 5884 5886 5888 5890 5892 5893 5895 5896 5898 5900 5902 5904 5905 5906 5909 5910 5910 5910 5912 5913 5914 5914 5913 5911 5910 5910 5909 5908 5907 5904 5902 5903 5901 5897
5848 5852 5856 5859 5862 5865 5868 5871 5874 5876 5879 5881 5884 5886 5888 5889 5891 5893 5894 5896 5898 5900 5903 5904 5907 5909 5910 5910 5910 5912 5913 5912 5912 5911 5909 5908 5907 5907 5908 5906 5905 5903 5902 5900 5898
5843 5847 5851 5855 5857 5861 5864 5867 5870 5873 5876 5878 5881 5883 5885 5886 5888 5890 5892 5894 5896 5898 5901 5903 5905 5907 5908 5909 5909 5910 5912 5911 5911 5909 5908 5907 5906 5905 5906 5905 5904 5902 5899 5898 5897
5837 5841 5846 5849 5853 5856 5860 5863 5866 5869 5872 5875 5878 5880 5883 5883 5886 5888 5890 5891 5894 5896 5899 5901 5903 5905 5906 5907 5908 5908 5910 5909 5909 5908 5906 5905 5904 5904 5906 5905 5903 5900 5898 5898 5896
5830 5835 5840 5844 5848 5851 5855 5858 5862 5865 5869 5872 5875 5878 5880 5881 5883 5885 5887 5889 5891 5894 5896 5900 5902 5903 5903 5904 5906 5906 5908 5908 5907 5908 5906 5905 5904 5903 5903 5903 5901 5899 5896 5895 5893
5824 5829 5834 5839 5843 5847 5851 5855 5860 5863 5865 5868 5871 5873 5876 5878 5879 5881 5885 5887 5889 5892 5894 5897 5899 5899 5902 5902 5903 5904 5906 5907 5905 5906 5904 5904 5902 5902 5901 5901 5900 5898 5895 5894 5892
5818 5822 5827 5833 5837 5841 5846 5850 5854 5858 5860 5863 5866 5869 5872 5875 5876 5878 5882 5884 5886 5888 5890 5895 5895 5896 5900 5900 5901 5902 5904 5905 5903 5903 5902 5902 5901 5899 5898 5897 5897 5897 5892 5892 5891
5812 5816 5821 5826 5831 5837 5841 5845 5848 5851 5857 5860 5863 5866 5868 5872 5873 5875 5878 5880 5882 5885 5887 5890 5892 5893 5895 5897 5898 5899 5900 5901 5902 5900 5901 5900 5898 5897 5895 5894 5893 5892 5891 5889 5889
5807 5811 5815 5821 5827 5830 5835 5839 5842 5848 5852 5856 5859 5861 5865 5868 5870 5870 5873 5877 5879 5881 5883 5887 5887 5889 5892 5894 5895 5896 5895 5897 5898 5898 5898 5898 5896 5895 5893 5892 5891 5890 5888 5886 5886
5803 5807 5811 5816 5820 5824 5829 5833 5837 5842 5846 5851 5853 5857 5860 5864 5866 5867 5869 5872 5875 5876 5881 5883 5883 5886 5890 5890 5893 5892 5893 5893 5894 5893 5894 5894 5892 5892 5891 5890 5889 5887 5885 5882 5882
5798 5803 5807 5810 5814 5819 5823 5827 5832 5837 5840 5845 5848 5851 5855 5858 5861 5863 5866 5869 5870 5873 5877 5879 5881 5884 5887 5886 5888 5889 5890 5890 5891 5891 5892 5890 5888 5889 5889 5889 5888 5885 5884 5882 5880
5791 5796 5799 5804 5810 5813 5817 5822 5827 5830 5836 5839 5843 5847 5850 5853 5855 5857 5860 5864 5866 5869 5871 5872 5876 5878 5880 5882 5883 5885 5886 5886 5886 5887 5887 5886 5886 5885 5886 5885 5884 5882 5882 5881 5880
5784 5788 5790 5796 5803 5806 5811 5816 5820 5826 5830 5834 5838 5842 5843 5846 5849 5851 5854 5858 5862 5864 5864 5867 5872 5872 5875 5878 5878 5879 5881 5881 5882 5883 5883 5883 5882 5881 5883 5881 5881 5879 5877 5877 5874
5775 5780 5782 5790 5795 5799 5804 5809 5816 5820 5824 5827 5831 5835 5837 5839 5843 5845 5849 5852 5855 5857 5859 5860 5863 5865 5868 5871 5873 5874 5875 5877 5877 5878 5879 5879 5879 5877 5878 5877 5878 5876 5875 5874 5872
5766 5771 5776 5783 5787 5790 5795 5803 5808 5812 5816 5819 5822 5827 5830 5833 5836 5839 5842 5846 5848 5849 5851 5855 5857 5859 5861 5864 5867 5868 5870 5872 5872 5875 5875 5875 5875 5875 5874 5874 5874 5874 5873 5872 5870
5758 5763 5769 5773 5777 5782 5789 5796 5800 5804 5808 5812 5814 5817 5822 5825 5828 5832 5837 5840 5842 5845 5847 5850 5852 5855 5856 5858 5861 5864 5865 5867 5869 5870 5872 5872 5872 5872 5871 5871 5870 5871 5870 5869 5867
5750 5755 5760 5764 5769 5775 5782 5786 5791 5795 5799 5803 5807 5810 5814 5817 5822 5826 5831 5834 5837 5839 5841 5844 5846 5849 5852 5852 5855 5857 5859 5862 5864 5868 5868 5868 5870 5869 5868 5867 5867 5867 5867 5863 5863
5742 5747 5751 5756 5761 5767 5772 5776 5781 5786 5790 5796 5801 5803 5806 5810 5815 5819 5824 5827 5831 5834 5837 5839 5841 5846 5848 5850 5850 5851 5855 5858 5861 5863 5864 5865 5867 5866 5865 5864 5864 5863 5863 5862 5859
5734 5738 5743 5747 5753 5759 5765 5769 5774 5778 5783 5789 5794 5796 5800 5805 5809 5814 5818 5822 5825 5828 5831 5834 5836 5841 5845 5848 5848 5850 5852 5854 5856 5858 5860 5861 5862 5863 5863 5862 5862 5860 5860 5859 5856
5724 5729 5734 5739 5745 5750 5756 5760 5767 5771 5775 5781 5786 5790 5795 5799 5801 5807 5812 5816 5820 5821 5824 5826 5830 5834 5838 5842 5842 5844 5845 5849 5851 5853 5854 5856 5857 5859 5860 5860 5859 5858 5857 5856 5854
5714 5720 5724 5730 5735 5741 5745 5751 5758 5762 5766 5772 5777 5782 5787 5792 5794 5800 5804 5810 5814 5816 5818 5820 5822 5826 5830 5836 5839 5840 5842 5844 5846 5847 5849 5851 5853 5855 5855 5856 5855 5855 5856 5856 5852
5703 5709 5714 5720 5725 5731 5737 5742 5748 5753 5757 5762 5768 5774 5778 5782 5787 5792 5797 5802 5807 5811 5814 5816 5818 5820 5824 5827 5831 5835 5838 5840 5842 5842 5844 5846 5848 5849 5851 5851 5850 5851 5852 5852 5850